Location: NJAA Observatory
(40.6819°N, 74.8979°W)
Time: 17:59:34
(UTC-05:00)

Iridium 4 - Visible Passes

Search period start: 23 January 2017 00:00
Search period end: 02 February 2017 00:00
Orbit: 773 x 776 km, 86.4° (Epoch: 22 January)

Date Brightness Start Highest point End Pass type
(mag) Time Alt. Az. Time Alt. Az. Time Alt. Az.
23 Jan 6.1 04:56:53 43° S 04:56:53 43° S 05:00:19 10° S visible
23 Jan 7.2 17:46:15 10° SSW 17:51:02 37° W 17:55:52 10° NNW visible
24 Jan 7.4 04:24:04 21° SSE 04:24:04 21° SSE 04:25:45 10° SSE visible
25 Jan 8.3 18:20:15 10° WSW 18:23:13 15° WNW 18:26:12 10° NW visible
26 Jan 7.7 17:44:03 10° SW 17:48:28 28° W 17:52:55 10° NNW visible
28 Jan 8.6 18:19:25 10° W 18:20:45 11° WNW 18:22:07 10° NW visible
29 Jan 8.2 17:42:05 10° SW 17:45:56 21° WNW 17:49:49 10° NNW visible
